Home > Weather > Bryne > Past weeks

Flag for Norway Weather for the Past 2 Weeks in Bryne, Norway

Now
28 °F

Clear.


Feels Like: 23 °F
Forecast: 23 / 32 °F
Wind: 5 mph from Northeast

Location: Stavanger / Sola

Current Time: Feb 12, 2016 at 5:09:41 AM

Latest Report: Feb 12, 2016 at 3:50 AM


Visibility: 10 mi

Pressure: 29.68 "Hg

Humidity: 55%

Dew point: 14 °F

Location of BryneLocation

Historic Weather in Bryne — Graph

°F

Bryne Temperature Yesterday

Maximum temperature yesterday: 46 °F (at 1:50 PM)
Minimum temperature yesterday: 30 °F (at 9:50 PM)
Average temperature yesterday: 37 °F

High & Low Weather Summary for the Past Weeks

 TemperatureHumidityPressure
High50 °F (Jan 29, 12:50 PM)100% (Jan 29, 1:50 AM)30.04 "Hg (Jan 29, 1:50 AM)
Low28 °F (Feb 12, 12:20 AM)51% (Feb 12, 1:50 AM)28.56 "Hg (Feb 8, 8:50 AM)
Average41 °F82%29.27 "Hg
* Reported Jan 28 3:50 AM — Feb 12 3:50 AM, Bryne, Weather by CustomWeather, © 2016

Note: Actual official high and low records may vary slightly from our data, if they occured in-between our weather recording intervals... More about our weather records

Advertising

Bryne Weather History for the Previous 24 Hours

 ConditionsComfort  
Time TempWeatherWind HumidityBarometerVisibility
3:50 AM
Fri, Feb 12
28 °FClear.5 mph55%29.68 "Hg10 mi
2:50 AM28 °FClear.3 mph55%29.68 "Hg10 mi
1:50 AM32 °FClear.No wind51%29.68 "Hg10 mi
12:50 AM30 °FClear.2 mph75%29.65 "Hg10 mi
12:20 AM28 °FClear.3 mph74%29.65 "Hg10 mi
11:50 PM
Thu, Feb 11
30 °FClear.1 mph75%29.65 "Hg10 mi
10:20 PM30 °FPassing clouds.1 mph69%29.65 "HgN/A
9:50 PM30 °FPassing clouds.No wind75%29.62 "HgN/A
9:20 PM32 °FPassing clouds.2 mph69%29.62 "HgN/A
8:50 PM32 °FPassing clouds.3 mph64%29.62 "HgN/A
8:20 PM34 °FPassing clouds.1 mph60%29.62 "HgN/A
7:50 PM32 °FPassing clouds.6 mph64%29.62 "HgN/A
7:20 PM34 °FPassing clouds.6 mph60%29.59 "HgN/A
6:50 PM34 °FPassing clouds.5 mph60%29.59 "HgN/A
6:20 PM34 °FPassing clouds.6 mph60%29.59 "HgN/A
5:50 PM36 °FPassing clouds.5 mph56%29.59 "HgN/A
5:20 PM37 °FScattered clouds.6 mph60%29.56 "HgN/A
4:50 PM37 °FScattered clouds.3 mph75%29.56 "HgN/A
4:20 PM39 °FScattered clouds.3 mph70%29.56 "HgN/A
3:50 PM41 °FScattered clouds.5 mph66%29.53 "HgN/A
3:20 PM41 °FScattered clouds.2 mph66%29.53 "HgN/A
2:50 PM41 °FScattered clouds.3 mph66%29.53 "HgN/A
2:20 PM43 °FScattered clouds.2 mph66%29.53 "HgN/A
1:50 PM46 °FScattered clouds.1 mph57%29.53 "HgN/A
1:20 PM43 °FScattered clouds.1 mph61%29.50 "HgN/A
12:50 PM39 °FScattered clouds.No wind75%29.50 "HgN/A
12:20 PM39 °FPartly sunny.1 mph75%29.50 "HgN/A
11:50 AM41 °FBroken clouds.1 mph76%29.50 "HgN/A
11:20 AM39 °FScattered clouds.2 mph75%29.47 "HgN/A
10:50 AM41 °FScattered clouds.3 mph70%29.47 "HgN/A
10:20 AM37 °FBroken clouds.3 mph75%29.47 "HgN/A
9:50 AM37 °FBroken clouds.2 mph75%29.45 "HgN/A
9:20 AM36 °FPartly sunny.5 mph81%29.45 "HgN/A
8:50 AM36 °FBroken clouds.3 mph81%29.42 "HgN/A
8:20 AM36 °FPassing clouds.5 mph81%29.42 "HgN/A
7:50 AM37 °FPassing clouds.5 mph75%29.42 "HgN/A
7:20 AM37 °FPassing clouds.6 mph75%29.39 "HgN/A
6:50 AM36 °FPassing clouds.6 mph81%29.39 "HgN/A
6:20 AM36 °FPassing clouds.2 mph81%29.39 "HgN/A
5:50 AM36 °FPassing clouds.6 mph87%29.36 "HgN/A
Weather by CustomWeather, © 2016

See weather overviewHow to use our weather pages